Location: Sungai Bunut
(2.6333°N, 113.7333°E)
Time: 11:23:54
(UTC+00:00)

Transit 2A - Pass Details

Date: 05 December 2023
Orbit: 599 x 953 km, 66.7° (Epoch: 01 March)

Event Time Altitude Azimuth Distance (km) Brightness Sun altitude
Rises 17:08:34 0° 11° (N) 2,915 - -66.4°
Reaches altitude 10° 17:11:35 10° 33° (NNE) 2,062 - -66.0°
Maximum altitude 17:14:26 16° 71° (ENE) 1,747 - -65.6°
Drops below altitude 10° 17:17:26 10° 109° (ESE) 2,189 - -65.2°
Sets 17:20:45 0° 130° (SE) 3,191 - -64.7°
